Молетай

Литва     55°13′45″N   25°25′03″E
темп.,
°C
ветер,
м/с
пор.,
м/с
влажн.,
%
обл.,
%
осадки,
мм/ч
давл.,
гПа
погр.,
м
16 апреля, пт
пт1600:00+4ссв51391100 0.2 1018617
03:00+5ссв51293100 0.3 1017554
06:00+5св51293100 0.0 1016538
09:00+5св61492100 0.4 1016611
12:00+6всв61392100 0.8 1017720
15:00+9всв61086100 0.9 1017724
18:00+9св61184100 0.0 1018958
21:00+8всв5139130 0.0 1019544
17 апреля, сб
сб1700:00+8св41190100 0.0 1019484
03:00+8св51194100 1.1 1019633
06:00+8всв4109499 0.0 1020541
09:00+8всв4891100 0.0 1021634
12:00+10всв4788100 0.0 1022629
15:00+13в576876 0.3 10221280
18:00+13всв4767100 0.3 10221072
21:00+9св358982 0.5 102392
18 апреля, вс
вс1800:00+8св3108960 0.0 1023352
03:00+8св4119399 0.0 1022304
06:00+7св310945 0.0 1023272
09:00+9всв59699 0.0 1023517
12:00+13всв574825 0.0 10221075
15:00+15всв574330 0.0 10221561
18:00+14всв46444 0.0 10221700
21:00+9всв38642 0.0 1023142
19 апреля, пн
пн1900:00+7всв387431 0.0 1024165
03:00+8в3875100 0.0 1024247
06:00+7в388523 0.1 1024335
09:00+8в3873100 0.1 1024571
12:00+12в5849100 0.0 10241976
15:00+14в573984 0.0 10222331
18:00+11в4757100 0.0 1023974
21:00+8в367314 0.0 1022111
20 апреля, вт
вт2000:00+6всв310815 0.0 1022241
03:00+5всв410885 0.0 1021326
06:00+5св3891100 0.0 1020231
09:00+7всв497983 0.1 1019645
12:00+10всв5859100 0.2 10171581
15:00+10св5755100 0.3 10151569
18:00+10св5759100 0.1 10141249
21:00+7ссв496757 0.1 1012589